GW4545 Weather Reports


Display with metric or nautical units.
time (UTC)temp
F
wind
direction
speed
MPH
gust
MPH
rain 1hr
in
rain 24hr
in
rain mn
in
humidity
%
barometer
mb
20260509234600 78 0 0.0 2.0 0.00 0.00 0.00 31 1016.8
20260509233048 78 22 1.0 3.0 0.00 0.00 0.00 34 1016.9
20260509231552 77 5 0.0 4.0 0.00 0.00 0.00 37 1017.2
20260509230055 77 0 2.0 5.0 0.00 0.00 0.00 33 1017.4
20260509224546 77 42 1.0 4.0 0.00 0.00 0.00 39 1017.6
20260509223048 77 0 0.0 2.0 0.00 0.00 0.00 34 1017.6
20260509221544 77 351 2.0 4.0 0.00 0.00 0.00 35 1018.2
20260509220042 77 0 0.0 4.0 0.00 0.00 0.00 43 1018.5
20260509214540 76 93 0.0 4.0 0.00 0.00 0.00 35 1018.7
20260509213052 76 327 1.0 5.0 0.00 0.00 0.00 41 1018.8
20260509211548 74 319 2.0 5.0 0.00 0.00 0.00 38 1018.9
20260509210051 74 74 1.0 5.0 0.00 0.00 0.00 40 1019.2
20260509204550 73 360 3.0 6.0 0.00 0.00 0.00 41 1019.5
20260509203047 72 72 2.0 5.0 0.00 0.00 0.00 51 1019.6
20260509201545 71 0 1.0 6.0 0.00 0.00 0.00 50 1019.8
20260509200054 70 0 1.0 6.0 0.00 0.00 0.00 53 1019.9
20260509194548 69 320 2.0 5.0 0.00 0.00 0.00 58 1020.0
20260509193046 69 20 0.0 5.0 0.00 0.00 0.00 55 1020.4
20260509191546 68 213 0.0 5.0 0.00 0.00 0.00 59 1020.5
20260509190043 67 0 2.0 5.0 0.00 0.00 0.00 56 1020.6
20260509184547 66 351 1.0 7.0 0.00 0.00 0.00 62 1020.9
20260509183124 65 235 2.0 5.0 0.00 0.00 0.00 61 1021.0
20260509181606 65 77 1.0 3.0 0.00 0.00 0.00 63 1021.0
20260509180050 64 44 2.0 6.0 0.00 0.00 0.00 64 1021.2
20260509174543 64 45 2.0 5.0 0.00 0.00 0.00 65 1021.4
20260509173042 62 131 1.0 4.0 0.00 0.00 0.00 66 1021.4
20260509171556 61 0 0.0 4.0 0.00 0.00 0.00 70 1021.6
20260509170051 61 0 2.0 4.0 0.00 0.00 0.00 68 1021.5
20260509164553 60 37 1.0 5.0 0.00 0.00 0.00 73 1021.6
20260509163043 59 43 0.0 4.0 0.00 0.00 0.00 75 1021.8
20260509161541 59 94 1.0 4.0 0.00 0.00 0.00 76 1022.0
20260509160041 58 33 1.0 4.0 0.00 0.00 0.00 79 1022.3
20260509154546 57 289 1.0 5.0 0.00 0.00 0.00 78 1022.2
20260509153048 56 54 0.0 3.0 0.00 0.00 0.00 82 1022.3
20260509151549 55 65 0.0 2.0 0.00 0.00 0.00 83 1022.3
20260509150048 53 74 0.0 1.0 0.00 0.00 0.00 84 1022.4
20260509144542 51 109 0.0 2.0 0.00 0.00 0.00 90 1022.4
20260509143043 49 0 0.0 2.0 0.00 0.00 0.00 92 1022.4
20260509141541 47 63 0.0 2.0 0.00 0.00 0.00 95 1022.1
20260509140056 46 0 0.0 3.0 0.00 0.00 0.00 94 1022.0
20260509134547 46 0 0.0 2.0 0.00 0.00 0.00 94 1022.1
20260509133047 45 261 1.0 3.0 0.00 0.00 0.00 94 1022.2
20260509131546 45 312 0.0 3.0 0.00 0.00 0.00 94 1021.9
20260509130046 45 238 1.0 4.0 0.00 0.00 0.00 95 1022.0
20260509124542 43 264 1.0 3.0 0.00 0.00 0.00 94 1022.0
20260509123047 44 244 1.0 3.0 0.00 0.00 0.00 93 1022.1
20260509121550 45 268 1.0 3.0 0.00 0.00 0.00 94 1022.3
20260509120051 44 0 0.0 2.0 0.00 0.00 0.00 94 1022.4
20260509114547 45 257 1.0 3.0 0.00 0.00 0.00 94 1022.4
20260509113045 44 261 1.0 3.0 0.00 0.00 0.00 95 1022.6
20260509111551 44 248 0.0 3.0 0.00 0.00 0.00 94 1022.5
20260509110050 44 247 0.0 2.0 0.00 0.00 0.00 94 1022.7
20260509104545 45 247 1.0 2.0 0.00 0.00 0.00 93 1022.9
20260509103042 45 0 0.0 1.0 0.00 0.00 0.00 93 1023.0
20260509101551 46 0 1.0 3.0 0.00 0.00 0.00 92 1022.9
20260509100041 46 352 1.0 4.0 0.00 0.00 0.00 94 1022.9
20260509094549 46 0 0.0 2.0 0.00 0.00 0.00 94 1023.0
20260509093054 46 245 2.0 3.0 0.00 0.00 0.00 93 1023.0
20260509091543 46 275 1.0 2.0 0.00 0.00 0.00 93 1023.1
20260509090052 46 218 1.0 3.0 0.00 0.00 0.00 92 1023.3
20260509084550 47 0 0.0 1.0 0.00 0.00 0.00 93 1023.3
20260509083047 47 13 0.0 3.0 0.00 0.00 0.00 92 1023.4
20260509081549 47 308 1.0 3.0 0.00 0.00 0.00 92 1023.6
20260509080054 47 260 1.0 3.0 0.00 0.00 0.00 91 1023.7
20260509074543 48 248 2.0 4.0 0.00 0.00 0.00 91 1023.7
20260509073042 48 0 1.0 2.0 0.00 0.00 0.00 90 1023.8
20260509071552 49 234 1.0 2.0 0.00 0.00 0.00 88 1023.8
20260509070049 50 0 0.0 2.0 0.00 0.00 0.00 87 1023.8
20260509064546 51 294 0.0 3.0 0.00 0.00 0.00 87 1023.6
20260509063047 51 256 0.0 3.0 0.00 0.00 0.00 88 1023.7
20260509061545 50 296 1.0 4.0 0.00 0.00 0.00 88 1023.7
20260509060044 51 254 1.0 3.0 0.00 0.00 0.00 87 1023.6
20260509054542 53 0 0.0 0.0 0.00 0.00 0.00 84 1023.6
20260509053046 53 0 0.0 0.0 0.00 0.00 0.00 82 1023.5
20260509051557 54 0 0.0 2.0 0.00 0.00 0.00 80 1023.6
20260509050049 55 306 1.0 4.0 0.00 0.00 0.00 80 1023.4
20260509044545 55 293 0.0 5.0 0.00 0.00 0.00 80 1023.4
20260509043042 56 0 0.0 0.0 0.00 0.00 0.00 78 1023.4
20260509041541 57 0 0.0 3.0 0.00 0.00 0.00 76 1023.0
20260509040043 58 272 0.0 3.0 0.00 0.00 0.00 75 1022.8
20260509034550 59 283 1.0 3.0 0.00 0.00 0.00 73 1022.6
20260509033051 60 295 1.0 4.0 0.00 0.00 0.00 70 1022.6
20260509031546 61 0 1.0 4.0 0.00 0.00 0.00 70 1022.7
20260509030042 62 320 0.0 2.0 0.00 0.00 0.00 68 1022.7
20260509024542 62 0 0.0 3.0 0.00 0.00 0.00 67 1022.7
20260509023046 62 13 2.0 5.0 0.00 0.00 0.00 65 1022.4
20260509021544 62 22 2.0 4.0 0.00 0.00 0.00 65 1022.3
20260509020047 63 27 1.0 4.0 0.00 0.00 0.00 64 1022.5
20260509014547 62 333 1.0 5.0 0.00 0.00 0.00 65 1022.4
20260509013050 63 352 2.0 8.0 0.00 0.00 0.00 62 1022.4
20260509011546 63 5 1.0 4.0 0.00 0.00 0.00 62 1022.4
20260509010047 64 49 2.0 6.0 0.00 0.00 0.00 62 1022.6
20260509004547 64 327 3.0 6.0 0.00 0.00 0.00 57 1022.4
20260509003044 65 23 2.0 6.0 0.00 0.00 0.00 57 1022.5
20260509001542 65 32 3.0 5.0 0.00 0.00 0.00 57 1022.7
20260509000041 65 0 2.0 5.0 0.00 0.00 0.00 58 1022.7